Regional Weather Roundup
Issued by NWS

Home | Current Version | Previous Version | Text Only | Print | Product List | Glossary Off
Versions: 1 2 3 4 5 6 7 8 9 10 11 12 13 14 15 16 17 18 19 20 21 22 23 24 25 26 27 28 29 30 31 32 33 34 35 36 37 38 39 40 41 42 43 44 45 46 47 48 49 50

000
ASUS43 KLMK 300610
RWRKY
KENTUCKY REGIONAL WEATHER ROUNDUP
NATIONAL WEATHER SERVICE LOUISVILLE KY
200 AM EDT TUE SEP 30 2014

NOTE "FAIR" INDICATES FEW OR NO CLOUDS BELOW 12,000 FEET
WITH NO SIGNIFICANT WEATHER AND/OR OBSTRUCTIONS TO VISIBILITY.

KYZ001>023-026-027-061>063-070>075-300700-
WESTERN AND SOUTH CENTRAL KENTUCKY

CITY           SKY/WX    TMP DP  RH WIND       PRES   REMARKS
PADUCAH        CLEAR     57  55  93 CALM      29.94F
HENDERSON      NOT AVBL
OWENSBORO      CLEAR     60  57  89 CALM      29.95S
HOPKINSVILLE   CLEAR     62  58  86 CALM      29.95S
BOWLING GREEN  CLEAR     60  56  86 CALM      29.95F
GLASGOW        CLEAR     57  57 100 CALM      29.95S FOG
$$

KYZ024-025-028>034-038-045-046-053-300700-
NORTH CENTRAL KENTUCKY

CITY           SKY/WX    TMP DP  RH WIND       PRES   REMARKS
LOUISVILLE/SDF CLEAR     64  57  78 CALM      29.94S
LOUISVILLE/LOU CLEAR     60  57  89 CALM      29.94F
FORT KNOX      CLEAR     55  54  94 W1        29.94F
$$

KYZ035>037-039>044-047>052-055>060-089>105-300700-
NORTHEAST KENTUCKY

CITY           SKY/WX    TMP DP  RH WIND       PRES   REMARKS
LEXINGTON      CLEAR     59  53  80 S3        29.95F
COVINGTON      CLEAR     57  53  86 CALM      29.94S
FRANKFORT      CLEAR     56  52  86 CALM      29.94S
$$

KYZ054-064>069-076>088-106>120-300700-
SOUTHEAST KENTUCKY

CITY           SKY/WX    TMP DP  RH WIND       PRES   REMARKS
JACKSON        CLEAR     63  60  90 CALM      29.96S
LONDON         CLEAR     59  57  93 CALM      29.97S FOG
SOMERSET       FOG       59  59 100 CALM      29.97F VSB 1/2
MIDDLESBORO    PTCLDY    58  58  99 CALM      29.99S
MONTICELLO     FOG       55  55 100 CALM      29.98S VSB<1/4
$$




USA.gov is the U.S. government's official web portal to all federal, state and local government web resources and services.